This demonstration page uses our WeatherBlox Daily Observations layout. Learn more.

Left ArrowRight Arrow

44.89941, -97.11507

Hourly Observations for January 4, 2016

Temp ( °F °C ) Dew Point ( °F °C ) Humidity (%) Winds ( mph kmh ) Pressure ( in mb ) Visibility ( mi km ) Precip ( " mm )
12:53 am 00:53 Mostly Cloudy with Freezing Fog 13 -10.6 10 -12.2 88 88 SSW 3 6 30.48 1032 0 0 0.00 0.00
1:40 am 01:40 Mostly Cloudy with Freezing Fog 11 -11.7 8 -13.3 88 88 S 3 6 30.56 1035 1 1 0.00 0.00
1:53 am 01:53 Cloudy with Freezing Fog 11 -11.7 7 -13.9 84 84 SSE 5 7 30.47 1032 1 1 0.00 0.00
2:14 am 02:14 Cloudy with Mist and Fog 10 -12.2 7 -13.9 87 87 Calm 30.53 1034 2 2 0.00 0.00
2:21 am 02:21 Mostly Cloudy with Mist and Fog 9 -12.8 6 -14.4 88 88 Calm 30.53 1034 3 5 0.00 0.00
2:33 am 02:33 Mostly Cloudy with Mist and Fog 7 -13.9 3 -16.1 84 84 SSE 3 6 30.56 1035 1 2 0.00 0.00
2:35 am 02:35 Mostly Cloudy with Mist and Fog 8 -13.3 4 -15.6 83 83 Calm 30.53 1034 1 1 0.00 0.00
2:53 am 02:53 Mostly Cloudy with Mist and Fog 8 -13.3 6 -14.4 92 92 SSE 5 7 30.47 1032 1 1 0.00 0.00
2:57 am 02:57 Mostly Cloudy with Mist and Fog 8 -13.3 4 -15.6 83 83 S 5 7 30.53 1034 2 3 0.00 0.00
3:01 am 03:01 Partly Cloudy 7 -13.9 3 -16.1 84 84 S 5 7 30.56 1035 10 16 0.00 0.00
3:53 am 03:53 Clear 6 -14.4 3 -16.1 87 87 S 5 7 30.48 1032 10 16 0.00 0.00
4:53 am 04:53 Clear 6 -14.4 2 -16.7 83 83 SSE 7 11 30.46 1032 10 16 0.00 0.00
5:53 am 05:53 Clear 6 -14.4 2 -16.7 83 83 SSE 7 11 30.47 1032 10 16 0.00 0.00
6:53 am 06:53 Clear 7 -13.9 2 -16.7 80 80 SSE 7 11 30.46 1032 10 16 0.00 0.00
7:53 am 07:53 Clear 7 -13.9 3 -16.1 84 84 SSE 7 11 30.45 1031 10 16 0.00 0.00
8:53 am 08:53 Sunny 9 -12.8 4 -15.6 80 80 SSE 10 17 30.45 1031 10 16 0.00 0.00
9:53 am 09:53 Sunny 11 -11.7 6 -14.4 81 81 SSE 9 15 30.45 1031 10 16 0.00 0.00
10:53 am 10:53 Sunny 16 -8.9 10 -12.2 77 77 SSE 10 17 30.44 1031 10 16 0.00 0.00
11:53 am 11:53 Sunny 21 -6.1 14 -10 74 74 S 14 22 30.41 1030 10 16 0.00 0.00
12:53 pm 12:53 Sunny 21 -6.1 14 -10 74 74 S 16 26 30.38 1029 10 16 0.00 0.00
1:53 pm 13:53 Sunny 22 -5.6 14 -10 71 71 S 16 26 30.35 1028 10 16 0.00 0.00
2:53 pm 14:53 Sunny 25 -3.9 16 -8.9 69 69 S 20 31 30.32 1027 10 16 0.00 0.00
3:53 pm 15:53 Sunny 25 -3.9 15 -9.4 66 66 S 20 31 30.30 1026 10 16 0.00 0.00
4:53 pm 16:53 Sunny 22 -5.6 13 -10.6 68 68 S 20 31 30.29 1026 10 16 0.00 0.00
5:53 pm 17:53 Clear 19 -7.2 11 -11.7 71 71 SSE 16 26 30.28 1025 10 16 0.00 0.00
6:53 pm 18:53 Clear 17 -8.3 10 -12.2 74 74 SSE 16 26 30.26 1025 10 16 0.00 0.00
7:53 pm 19:53 Clear 17 -8.3 10 -12.2 74 74 SSE 16 26 30.24 1024 10 16 0.00 0.00
8:53 pm 20:53 Clear 16 -8.9 10 -12.2 77 77 S 18 30 30.21 1023 10 16 0.00 0.00
9:53 pm 21:53 Clear 16 -8.9 10 -12.2 77 77 S 17 28 30.19 1022 10 16 0.00 0.00
10:53 pm 22:53 Clear 16 -8.9 10 -12.2 77 77 S 16 26 30.18 1022 9 14 0.00 0.00
11:53 pm 23:53 Clear 18 -7.8 11 -11.7 74 74 S 20 31 30.15 1021 9 14 0.00 0.00

Powered by AerisWeather